Miscellaneous Local Product
Issued by NWS Hastings, NE

Home | Current Version | Previous Version | Graphics & Text | Print | Product List | Glossary Off
Versions: 1 2 3 4 5 6 7 8 9 10 11 12 13 14 15 16 17 18 19 20 21 22 23 24 25 26 27 28 29 30 31 32 33 34 35 36 37 38 39 40 41 42 43 44 45 46 47 48 49 50

331
AXUS43 KGID 301802
MISGRI

GID CWA HOURLY WEATHER ROUNDUP
NATIONAL WEATHER SERVICE HASTINGS NE
100 PM CDT THU MAR 30 2017

NOTE: "FAIR" INDICATES FEW OR NO CLOUDS BELOW 12,000 FEET WITH NO
SIGNIFICANT WEATHER AND/OR OBSTRUCTIONS TO VISIBILITY.

...SOUTH CENTRAL NEBRASKA...

CITY           SKY/WX    TMP DP  RH WIND       PRES   REMARKS
GRAND ISLAND   CLOUDY    41  39  93 N14       29.77F
HASTINGS       CLOUDY    42  37  82 N20       29.77F
KEARNEY        CLOUDY    43  34  70 N17       29.78F
ORD            CLOUDY    43  35  73 N10       29.78F
YORK           CLOUDY    41  41 100 N16G25    29.74F
AURORA         CLOUDY    41  40  94 N18       29.75F
LEXINGTON      CLOUDY    40  35  82 N9        29.81S WCI  34
HOLDREGE       CLOUDY    41  36  82 N13       29.78F
HEBRON         CLOUDY    43  39  88 N17G25    29.71F

...NEBRASKA PANHANDLE...

CITY           SKY/WX    TMP DP  RH WIND       PRES   REMARKS
CHADRON        CLOUDY    53  39  59 E7        29.73F
ALLIANCE       MOSUNNY   48  37  65 SE9       29.74F
SCOTTSBLUFF    CLOUDY    49  39  68 SE7       29.75F
SIDNEY         MOSUNNY   53  38  56 CALM      29.76F

...WESTERN AND NORTH CENTRAL NEBRASKA...

CITY           SKY/WX    TMP DP  RH WIND       PRES   REMARKS
VALENTINE      CLOUDY    38  33  82 E6        29.83F WCI  33
AINSWORTH      CLOUDY    38  35  87 NE7       29.83S WCI  33
ONEILL         CLOUDY    40  38  94 N12       29.81F WCI  33
BROKEN BOW     CLOUDY    40  34  79 N10       29.80F WCI  33
IMPERIAL       CLOUDY    49  38  65 VRB5      29.78F
NORTH PLATTE   CLOUDY    43  34  70 NE8       29.81F
MCCOOK         CLOUDY    44  37  76 N7        29.81F

...EASTERN NEBRASKA...

CITY           SKY/WX    TMP DP  RH WIND       PRES   REMARKS
NORFOLK        CLOUDY    40  37  89 N13       29.77F WCI  32
SO SIOUX CITY  CLOUDY    43  39  86 N12       29.77F
TEKAMAH        CLOUDY    42  38  85 N18       29.73F
COLUMBUS       CLOUDY    41  37  87 N10       29.76F
ALBION         CLOUDY    41  37  84 N12G17    29.78F
OMAHA EPPLEY   CLOUDY    43  38  82 N17       29.70S
OFFUTT AFB     CLOUDY    43  39  86 N13       29.69F
MILLARD        CLOUDY    44  41  86 N7        29.71S
LINCOLN        CLOUDY    43  40  89 N17G24    29.72F
NEBRASKA CITY  CLOUDY    42  42 100 N16       29.67S
BEATRICE       CLOUDY    42  41  98 N14G20    29.70S
FALLS CITY     CLOUDY    45  42  89 N14       29.64R

...NORTHERN KANSAS...

CITY           SKY/WX    TMP DP  RH WIND       PRES   REMARKS
GOODLAND       CLOUDY    47  40  76 NW8       29.79S
HILL CITY      CLOUDY    42  38  85 N12       29.81S
NORTON         CLOUDY    39  34  81 NW10      29.80S WCI  32
PHILLIPSBURG   CLOUDY    46  37  71 NW15      29.79S
HAYS             N/A     45  38  76 NW17      29.77F
RUSSELL        CLOUDY    44  38  79 NW20      29.75S
CONCORDIA      CLOUDY    43  40  89 N18       29.71F
SALINA         CLOUDY    45  41  86 N16       29.73S
TOPEKA         CLOUDY    48  46  93 N12       29.62R



USA.gov is the U.S. government's official web portal to all federal, state and local government web resources and services.